Date,TemperatureHighF,TemperatureAvgF,TemperatureLowF,DewpointHighF,DewpointAvgF,DewpointLowF,HumidityHigh,HumidityAvg,HumidityLow,PressureMaxIn,PressureMinIn,WindSpeedMaxMPH,WindSpeedAvgMPH,GustSpeedMaxMPH,PrecipitationSumIn
2014-1-1,15,6,-3,5,-3,-13,82,68,49,0.00,40.00,6,2,14,0.00
2014-1-2,5,0,-5,-3,-9,-15,73,65,56,0.00,40.00,2,1,6,0.00
2014-1-3,3,-6,-22,-8,-16,-30,72,61,44,0.00,40.00,3,2,7,0.00
2014-1-4,17,-4,-23,6,-14,-100,79,63,44,0.00,40.00,3,1,7,0.00
2014-1-5,29,19,9,27,12,4,91,76,47,0.00,40.00,2,1,6,0.03
2014-1-6,47,34,23,46,30,10,98,85,56,0.00,40.00,6,2,23,1.13
2014-1-7,23,10,4,14,-6,-14,76,48,34,0.00,40.00,2,1,23,0.01
2014-1-8,16,7,0,1,-2,-11,79,66,48,0.00,40.00,1,0,4,0.00
2014-1-9,22,4,-3,9,-2,-9,81,77,45,0.00,40.00,1,0,5,0.00
2014-1-10,24,12,-7,19,6,-13,85,76,70,0.00,40.00,0,0,0,0.00
2014-1-11,33,27,23,32,22,-100,96,88,83,0.00,40.00,2,0,4,0.10
2014-1-12,44,37,34,43,30,21,97,76,58,0.00,40.00,7,4,18,0.39
2014-1-13,42,33,26,28,25,21,88,72,51,0.00,40.00,5,2,13,0.01
2014-1-14,38,35,32,37,33,28,97,94,86,0.00,40.00,2,1,5,0.63
2014-1-15,44,33,28,35,30,27,97,90,60,0.00,40.00,4,1,7,0.38
2014-1-16,32,30,29,31,26,23,96,88,74,0.00,40.00,2,1,5,0.00
2014-1-17,37,30,22,30,27,20,95,88,68,0.00,40.00,2,0,6,0.13
2014-1-18,40,24,14,29,18,-100,92,80,50,0.00,40.00,1,0,5,0.02
2014-1-19,30,25,23,26,20,15,91,83,66,0.00,40.00,5,1,14,0.00
2014-1-20,26,18,-3,23,12,-11,91,76,58,0.00,40.00,3,1,9,0.00
2014-1-21,6,-4,-16,-10,-14,-23,71,60,43,0.00,40.00,2,1,5,0.00
2014-1-22,9,-5,-16,-8,-17,-23,69,57,43,0.00,40.00,2,2,7,0.00
2014-1-23,9,-8,-22,-7,-18,-31,72,62,44,0.00,40.00,2,1,6,0.00
2014-1-24,8,-5,-18,-9,-16,-26,72,60,38,0.00,40.00,4,2,11,0.00
2014-1-25,24,16,1,18,4,-100,87,60,37,0.00,40.00,6,3,13,0.00
2014-1-26,19,6,-2,15,-7,-18,85,55,34,0.00,40.00,8,4,20,0.00
2014-1-27,31,15,1,25,3,-11,89,59,30,0.00,40.00,8,3,19,0.00
2014-1-28,16,1,-13,-5,-13,-20,69,53,27,0.00,40.00,9,3,17,0.00
2014-1-29,18,4,-14,-8,-12,-21,72,50,26,0.00,40.00,7,3,13,0.00
2014-1-30,25,11,2,5,0,-9,76,61,38,0.00,40.00,4,2,9,0.00
2014-1-31,35,22,6,17,10,0,79,61,36,0.00,40.00,5,2,13,0.05
2014-2-1,36,22,5,30,14,-100,95,75,46,0.00,40.00,3,1,5,0.04
2014-2-2,34,32,26,33,30,20,97,94,79,0.00,40.00,3,1,9,0.01
2014-2-3,32,20,1,22,15,-4,91,80,57,0.00,40.00,2,1,7,0.03
2014-2-4,28,8,-8,14,0,-14,84,72,46,0.00,40.00,4,1,11,0.02
2014-2-5,24,17,11,17,13,7,87,83,74,0.00,40.00,2,1,4,0.00
2014-2-6,17,6,-7,12,-1,-14,86,71,52,0.00,40.00,3,1,8,0.00
2014-2-7,21,4,-14,9,-4,-21,81,68,52,0.00,40.00,5,2,12,0.00
2014-2-8,22,8,-3,5,-1,-9,80,68,43,0.00,40.00,4,2,9,0.00
2014-2-9,26,11,-1,11,2,-6,85,69,42,0.00,40.00,3,1,7,0.00
2014-2-10,22,12,-5,13,4,-11,86,69,43,0.00,40.00,7,1,14,0.00
2014-2-11,18,1,-15,4,-10,-22,75,61,40,0.00,40.00,7,2,16,0.00
2014-2-12,25,0,-23,0,-13,-32,74,57,26,0.00,40.00,3,1,7,0.00
2014-2-13,28,12,-8,25,6,-15,90,75,49,0.00,40.00,4,1,9,0.00
2014-2-14,30,25,20,27,20,13,94,81,69,0.00,40.00,6,2,17,0.00
2014-2-15,34,26,19,26,20,-100,91,80,64,0.00,40.00,2,1,5,0.00
2014-2-16,25,16,0,21,5,-7,85,62,45,0.00,40.00,7,4,14,0.00
2014-2-17,22,4,-12,-4,-9,-19,75,56,29,0.00,40.00,3,2,8,0.00
2014-2-18,28,7,-18,21,0,-26,91,72,46,0.00,40.00,3,1,9,0.00
2014-2-19,30,23,11,27,19,7,95,86,70,0.00,40.00,2,1,5,0.00
2014-2-20,44,33,26,31,26,19,96,78,39,0.00,40.00,6,2,16,0.00
2014-2-21,36,33,30,35,32,29,97,96,95,0.00,40.00,2,1,6,0.00
2014-2-22,46,36,26,32,21,-100,98,64,24,0.00,40.00,7,4,21,0.00
2014-2-23,46,34,23,24,15,2,77,52,22,0.00,40.00,7,3,16,0.00
2014-2-24,29,21,12,18,7,-1,79,54,36,0.00,40.00,9,4,19,0.00
2014-2-25,18,11,0,6,0,-5,78,61,43,0.00,40.00,8,3,16,0.00
2014-2-26,20,4,-10,8,-8,-17,77,59,28,0.00,40.00,7,2,20,0.00
2014-2-27,21,7,-10,9,-5,-18,83,58,32,0.00,40.00,7,2,16,0.00
2014-2-28,18,5,-9,1,-11,-18,72,50,25,0.00,40.00,8,3,17,0.00
2014-3-1,27,8,-15,11,-9,-100,68,50,24,0.00,40.00,3,1,7,0.00
2014-3-2,26,19,0,16,6,-8,70,57,39,0.00,40.00,6,2,12,0.00
2014-3-3,19,1,-14,-7,-14,-21,74,52,24,0.00,40.00,6,2,17,0.00
2014-3-4,21,2,-21,4,-12,-29,79,55,21,0.00,40.00,4,2,10,0.00
2014-3-5,25,13,-2,10,2,-13,80,63,41,0.00,40.00,3,1,10,0.00
2014-3-6,33,3,-20,-4,-15,-28,69,48,12,0.00,40.00,4,2,8,0.00
2014-3-7,44,14,-14,8,-8,-22,70,47,10,0.00,40.00,5,2,10,0.00
2014-3-8,43,23,8,26,11,-100,78,64,37,0.00,40.00,3,2,9,0.00
2014-3-9,31,16,-1,11,2,-7,82,56,25,0.00,40.00,6,2,14,0.00
2014-3-10,34,25,15,23,14,2,77,62,53,0.00,40.00,3,1,7,0.00
2014-3-11,42,33,26,35,29,21,96,86,61,0.00,40.00,4,1,10,0.00
2014-3-12,35,28,20,31,25,17,94,91,86,0.00,40.00,2,1,5,0.00
2014-3-13,20,12,6,17,5,-3,89,71,56,0.00,40.00,3,2,12,0.00
2014-3-14,29,21,-4,19,9,-11,88,62,36,0.00,40.00,3,2,9,0.00
2014-3-15,49,31,18,35,26,15,96,83,47,0.00,40.00,5,2,13,0.00
2014-3-16,28,15,-1,23,-1,-100,81,52,33,0.00,40.00,9,4,17,0.00
2014-3-17,27,4,-20,-6,-14,-28,69,48,23,0.00,40.00,4,2,13,0.00
2014-3-18,40,12,-16,8,-7,-24,70,48,14,0.00,40.00,3,2,9,0.00
2014-3-19,42,22,0,28,7,-6,91,58,22,0.00,40.00,3,2,12,0.00
2014-3-20,38,33,29,36,28,-100,94,88,73,0.00,40.00,7,2,14,0.00
2014-3-21,32,28,15,29,18,-100,92,70,56,0.00,40.00,7,4,16,0.00
2014-3-22,36,20,2,31,14,-3,91,79,67,0.00,40.00,7,2,19,0.00
2014-3-23,28,23,6,24,8,-100,90,58,29,0.00,40.00,7,3,15,0.00
2014-3-24,27,15,-2,-4,-7,-11,63,38,23,0.00,40.00,4,2,15,0.00
2014-3-25,32,9,-16,7,-6,-24,70,53,27,0.00,40.00,5,2,14,0.00
2014-3-26,33,19,8,14,6,-2,73,58,35,0.00,40.00,5,3,22,0.00
2014-3-27,37,23,2,15,-1,-9,64,37,21,0.00,40.00,5,3,16,0.00
2014-3-28,37,33,29,35,29,15,98,86,51,0.00,40.00,2,1,9,0.00
2014-3-29,47,36,33,35,32,29,98,87,53,0.00,40.00,2,1,7,0.01
2014-3-30,41,35,33,37,31,-100,97,90,82,0.00,40.00,3,2,10,0.01
2014-3-31,39,32,29,29,25,21,90,75,61,0.00,40.00,4,3,12,0.02
2014-4-1,57,33,24,24,19,-100,77,63,24,0.00,40.00,3,2,11,0.31
2014-4-2,55,37,23,30,24,17,87,64,26,0.00,40.00,5,2,11,0.32
2014-4-3,46,33,23,29,21,16,92,65,34,0.00,40.00,5,2,14,0.32
2014-4-4,56,32,17,32,21,14,96,70,27,0.00,40.00,4,2,10,1.23
2014-4-5,42,36,33,38,31,23,98,85,63,0.00,40.00,7,3,20,0.67
2014-4-6,49,37,28,22,18,-100,77,52,26,0.00,40.00,7,4,20,0.01
2014-4-7,62,41,22,30,23,19,91,57,23,0.00,40.00,5,2,14,0.00
2014-4-8,57,45,36,45,39,25,98,80,44,0.00,40.00,5,2,16,0.19
2014-4-9,47,38,26,34,24,10,86,60,25,0.00,40.00,8,4,22,0.01
2014-4-10,59,42,19,25,18,12,85,44,20,0.00,40.00,7,3,18,0.00
2014-4-11,61,51,35,38,28,22,79,44,23,0.00,40.00,7,3,19,0.00
2014-4-12,61,42,26,33,26,23,91,60,26,0.00,40.00,7,2,18,0.00
2014-4-13,49,38,33,43,33,-100,97,86,72,0.00,40.00,2,1,6,0.24
2014-4-14,76,49,30,51,40,29,98,75,41,0.00,40.00,6,2,16,0.03
2014-4-15,67,54,32,58,48,31,97,82,61,0.00,40.00,6,3,18,0.29
2014-4-16,34,26,17,31,16,11,95,68,42,0.00,40.00,5,3,15,0.89
2014-4-17,49,30,13,21,16,10,87,60,28,0.00,40.00,4,2,10,0.05
2014-4-18,51,31,20,29,20,12,90,68,21,0.00,40.00,6,1,11,0.00
2014-4-19,50,37,27,34,26,18,82,67,36,0.00,40.00,5,2,15,0.00
2014-4-20,61,40,20,31,15,-100,91,52,10,0.00,40.00,5,2,12,0.00
2014-4-21,73,49,29,39,29,22,80,52,20,0.00,40.00,5,2,12,0.00
2014-4-22,70,53,42,50,41,29,98,70,22,0.00,40.00,5,1,17,0.16
2014-4-23,47,42,39,47,39,31,99,89,73,0.00,40.00,3,2,12,0.17
2014-4-24,46,40,35,31,27,23,76,59,48,0.00,40.00,4,3,16,0.02
2014-4-25,62,43,25,34,26,18,91,57,19,0.00,40.00,3,2,8,0.00
2014-4-26,46,43,40,38,33,28,84,67,49,0.00,40.00,3,2,8,0.04
2014-4-28,46,44,43,37,36,35,80,74,66,0.00,40.00,3,1,11,0.00
2014-4-29,60,48,32,38,31,27,93,55,29,0.00,40.00,5,3,15,0.00
2014-4-30,52,43,36,40,34,30,96,74,45,0.00,40.00,4,2,11,0.23
2014-5-1,66,48,37,53,44,36,99,89,57,0.00,40.00,3,1,11,0.62
2014-5-2,59,48,33,51,40,32,99,76,48,0.00,40.00,6,2,20,0.29
2014-5-3,63,49,39,46,40,37,95,73,42,0.00,40.00,6,2,15,0.03
2014-5-4,50,44,42,45,41,-100,99,91,66,0.00,40.00,2,1,10,0.53
2014-5-5,57,46,42,45,41,36,99,84,55,0.00,40.00,4,2,9,0.05
2014-5-6,54,46,37,41,35,30,96,69,41,0.00,40.00,4,2,12,0.01
2014-5-7,38,36,35,34,33,32,88,86,84,0.00,40.00,2,2,3,0.00
2014-5-13,59,53,50,43,42,41,78,67,53,0.00,40.00,3,1,7,0.00
2014-5-14,81,60,47,50,46,43,96,63,34,0.00,40.00,4,2,9,0.01
2014-5-15,78,62,45,60,52,42,92,71,53,0.00,40.00,6,2,15,0.01
2014-5-16,77,70,65,59,56,50,76,63,44,0.00,40.00,6,3,19,0.00
2014-5-17,70,63,51,61,52,38,99,70,40,0.00,40.00,5,3,16,0.78
2014-5-18,67,53,41,43,35,-100,92,56,29,0.00,40.00,3,2,11,0.03
2014-5-19,51,42,31,48,35,-100,99,86,61,0.00,40.00,2,1,7,0.22
2014-5-20,70,55,40,54,43,-100,100,72,42,0.00,40.00,4,2,12,0.05
2014-5-21,77,59,38,50,44,37,97,63,31,0.00,40.00,3,1,9,0.00
2014-5-22,72,55,47,57,49,-100,100,85,48,0.00,40.00,4,1,10,1.72
2014-5-23,60,55,51,56,53,50,100,91,74,0.00,40.00,2,0,7,0.03
2014-5-24,69,56,48,58,52,47,100,87,54,0.00,40.00,3,1,8,0.20
2014-5-25,79,59,46,60,48,-100,100,75,32,0.00,40.00,3,1,10,0.07
2014-5-26,71,59,51,64,56,50,100,90,64,0.00,40.00,7,2,17,0.09
2014-5-27,60,55,49,60,55,49,100,99,97,0.00,40.00,3,1,11,0.92
2014-5-28,59,50,40,50,47,39,100,91,68,0.00,40.00,3,1,6,0.53
2014-5-29,72,51,38,51,41,36,100,75,28,0.00,40.00,4,2,11,0.01
2014-5-30,72,52,40,56,47,39,99,86,43,0.00,40.00,2,1,12,0.69
2014-5-31,69,54,40,58,48,40,100,83,37,0.00,40.00,3,1,10,0.09
2014-6-1,78,55,37,54,40,-100,99,69,24,0.00,40.00,4,2,11,0.01
2014-6-2,86,78,58,57,50,45,85,43,25,0.00,40.00,4,2,11,0.00
2014-6-3,89,69,48,60,50,37,98,59,29,0.00,40.00,1,0,10,0.00
2014-6-4,76,63,55,59,53,43,95,70,43,0.00,40.00,4,1,9,0.02
2014-6-5,76,59,47,65,53,44,100,82,43,0.00,40.00,4,1,9,0.13
2014-6-6,70,60,53,58,55,52,100,86,56,0.00,40.00,5,1,14,0.10
2014-6-7,82,65,46,63,53,45,99,71,38,0.00,40.00,1,0,13,0.00
2014-6-8,86,67,47,62,51,-100,99,65,29,0.00,40.00,4,1,8,0.00
2014-6-9,86,70,54,61,56,49,96,67,32,0.00,40.00,3,1,8,0.00
2014-6-10,74,65,53,59,56,51,96,76,54,0.00,40.00,3,1,10,0.00
2014-6-11,80,61,43,57,49,42,99,71,29,0.00,40.00,4,2,11,0.00
2014-6-12,60,55,53,57,53,48,100,95,77,0.00,40.00,2,1,9,0.84
2014-6-13,67,58,55,63,57,55,100,95,85,0.00,40.00,3,1,10,0.83
2014-6-14,65,58,50,61,56,49,100,93,65,0.00,40.00,2,0,9,0.37
2014-6-15,73,59,49,55,50,-100,99,77,44,0.00,40.00,4,2,16,0.04
2014-6-16,81,61,40,56,46,39,99,66,25,0.00,40.00,3,1,9,0.01
2014-6-17,85,70,55,63,56,49,97,67,32,0.00,40.00,4,1,9,0.01
2014-6-18,77,68,63,67,61,56,100,80,55,0.00,40.00,7,3,16,0.37
2014-6-19,76,64,49,63,48,40,98,64,27,0.00,40.00,6,2,15,0.01
2014-6-20,64,53,43,47,42,18,96,71,17,0.00,40.00,3,2,11,0.00
2014-6-21,69,53,37,49,43,36,99,72,40,0.00,40.00,4,2,11,0.00
2014-6-22,78,58,39,56,45,-100,99,70,34,0.00,40.00,4,2,9,0.00
2014-6-23,83,61,43,58,50,42,99,73,31,0.00,40.00,4,2,12,0.00
2014-6-24,75,66,54,63,58,52,96,78,60,0.00,40.00,3,2,10,0.00
2014-6-25,71,67,63,69,65,60,99,94,82,0.00,40.00,3,1,7,0.83
2014-6-26,74,65,55,67,62,54,99,90,67,0.00,40.00,2,1,7,0.72
2014-6-27,85,67,51,62,54,48,99,70,32,0.00,40.00,3,2,9,0.01
2014-6-28,87,66,46,60,53,45,99,70,28,0.00,40.00,4,2,10,0.00
2014-6-29,87,69,48,60,52,-100,99,62,29,0.00,40.00,4,2,9,0.00
2014-6-30,87,72,56,67,63,55,97,75,51,0.00,40.00,4,2,15,0.00
2014-7-1,91,77,60,72,66,59,97,73,44,0.00,40.00,5,2,14,0.00
2014-7-2,94,77,68,76,69,64,99,81,38,0.00,40.00,6,2,15,0.18
2014-7-3,91,76,65,71,67,61,99,78,39,0.00,40.00,4,2,11,0.43
2014-7-4,71,66,59,68,64,56,99,94,84,0.00,40.00,2,1,8,0.81
2014-7-5,76,65,55,57,50,43,99,64,38,0.00,40.00,7,4,22,0.06
2014-7-6,82,70,59,57,51,-100,85,55,34,0.00,40.00,7,4,17,0.01
2014-7-7,79,63,50,68,59,49,99,87,48,0.00,40.00,7,2,16,0.33
2014-7-8,87,75,62,72,65,62,99,75,47,0.00,40.00,5,2,11,0.13
2014-7-9,81,72,62,69,60,54,99,70,41,0.00,40.00,8,3,19,0.25
2014-7-10,77,66,52,63,52,45,98,66,36,0.00,40.00,6,2,15,0.02
2014-7-11,81,62,44,57,51,43,99,72,34,0.00,40.00,4,1,8,0.00
2014-7-12,84,67,48,64,55,47,99,72,39,0.00,40.00,4,2,11,0.00
2014-7-13,82,70,61,71,64,60,99,84,55,0.00,40.00,4,2,13,0.14
2014-7-14,85,71,60,69,64,60,99,80,47,0.00,40.00,4,2,12,0.51
2014-7-15,82,70,59,71,66,58,99,87,61,0.00,40.00,3,1,10,0.13
2014-7-16,78,68,62,68,64,58,99,89,62,0.00,40.00,2,1,9,0.68
2014-7-17,74,64,53,61,55,49,99,77,42,0.00,40.00,5,2,10,0.01
2014-7-18,82,62,45,58,52,44,99,74,36,0.00,40.00,5,2,11,0.00
2014-7-19,80,63,48,60,54,47,99,77,44,0.00,40.00,4,1,10,0.00
2014-7-20,82,63,53,61,56,51,98,82,34,0.00,40.00,2,1,7,0.00
2014-7-21,84,68,50,62,57,49,99,72,40,0.00,40.00,3,1,8,0.00
2014-7-22,89,72,55,67,61,54,98,74,41,0.00,40.00,4,2,10,0.00
2014-7-23,87,71,60,71,65,59,99,85,54,0.00,40.00,5,2,14,0.79
2014-7-24,79,67,50,66,57,48,99,75,43,0.00,40.00,4,2,11,0.30
2014-7-25,80,62,45,59,53,44,99,76,43,0.00,40.00,5,2,13,0.00
2014-7-26,79,62,50,60,54,49,98,79,39,0.00,40.00,6,2,13,0.00
2014-7-27,78,61,51,67,58,50,99,88,63,0.00,40.00,4,1,15,0.54
2014-7-28,72,63,59,68,62,59,99,98,86,0.00,40.00,2,1,5,1.46
2014-7-29,73,62,50,61,54,47,99,77,44,0.00,40.00,5,2,11,0.19
2014-7-30,76,61,47,57,51,45,99,74,35,0.00,40.00,5,2,10,0.00
2014-7-31,71,55,45,65,52,44,98,91,67,0.00,40.00,3,1,12,0.09
2014-8-1,83,64,53,64,57,52,99,82,40,0.00,40.00,5,2,12,0.07
2014-8-2,83,67,55,66,59,54,98,80,50,0.00,40.00,4,1,9,0.00
2014-8-3,83,67,55,65,60,54,99,79,48,0.00,40.00,3,1,9,0.00
2014-8-4,80,68,60,70,63,59,97,85,55,0.00,40.00,2,1,6,0.12
2014-8-5,84,67,57,66,60,56,99,83,44,0.00,40.00,3,2,10,0.01
2014-8-6,78,67,60,63,59,50,98,78,43,0.00,40.00,4,2,14,0.01
2014-8-7,67,60,55,59,56,53,98,91,74,0.00,40.00,2,1,5,0.47
2014-8-8,81,64,54,63,57,54,99,82,45,0.00,40.00,4,1,10,0.07
2014-8-9,84,67,54,63,57,50,99,75,37,0.00,40.00,3,1,9,0.00
2014-8-10,86,66,49,64,56,48,99,73,40,0.00,40.00,4,1,7,0.05
2014-8-11,87,68,56,65,58,55,99,78,34,0.00,40.00,4,1,9,0.05
2014-8-12,82,69,54,66,58,53,98,72,46,0.00,40.00,3,2,10,0.00
2014-8-13,68,64,58,62,59,57,98,85,67,0.00,40.00,6,2,16,0.84
2014-8-14,70,61,54,58,54,46,99,81,48,0.00,40.00,7,2,13,0.52
2014-8-15,69,58,47,55,50,46,98,80,49,0.00,40.00,4,1,13,0.03
2014-8-16,68,60,54,57,55,51,98,85,55,0.00,40.00,4,1,12,0.05
2014-8-17,70,60,55,59,56,51,99,90,66,0.00,40.00,4,1,8,0.12
2014-8-18,67,60,49,57,53,48,98,81,52,0.00,40.00,4,2,11,0.04
2014-8-19,79,60,47,58,52,46,99,80,41,0.00,40.00,3,1,7,0.03
2014-8-20,83,63,48,62,54,47,99,79,38,0.00,40.00,3,1,6,0.00
2014-8-21,77,62,52,63,56,51,97,83,49,0.00,40.00,3,1,9,0.00
2014-8-22,73,63,57,62,59,56,98,86,61,0.00,40.00,2,1,9,0.00
2014-8-23,78,63,51,61,56,50,99,81,43,0.00,40.00,4,1,8,0.00
2014-8-24,86,65,53,66,56,52,99,76,38,0.00,40.00,2,1,8,0.00
2014-8-25,87,67,53,67,59,52,99,80,43,0.00,40.00,4,1,7,0.00
2014-8-26,86,69,55,65,58,54,99,74,38,0.00,40.00,5,2,12,0.00
2014-8-27,86,69,56,68,59,55,97,75,40,0.00,40.00,5,2,10,0.00
2014-8-28,72,62,52,60,52,44,98,71,43,0.00,40.00,5,2,13,0.00
2014-8-29,79,64,53,56,52,45,94,70,30,0.00,40.00,3,1,7,0.00
2014-8-30,79,62,47,59,53,46,97,76,43,0.00,40.00,6,2,13,0.00
2014-8-31,74,64,54,70,61,53,98,90,75,0.00,40.00,4,1,7,0.07
2014-9-1,86,72,61,69,65,60,99,81,48,0.00,40.00,5,2,10,0.02
2014-9-2,88,71,57,69,64,56,99,81,48,0.00,40.00,5,2,12,0.04
2014-9-3,79,67,53,67,59,49,99,79,42,0.00,40.00,6,2,14,0.53
2014-9-4,83,64,46,62,54,45,98,76,39,0.00,40.00,5,2,10,0.00
2014-9-5,87,70,53,69,61,52,98,79,44,0.00,40.00,5,2,14,0.00
2014-9-6,79,66,58,70,63,55,98,89,65,0.00,40.00,5,2,14,0.26
2014-9-7,73,59,48,58,50,47,99,78,42,0.00,40.00,5,1,12,0.02
2014-9-8,78,59,44,56,49,43,99,76,35,0.00,40.00,4,2,8,0.00
2014-9-9,76,58,46,56,46,40,98,72,28,0.00,40.00,4,1,11,0.00
2014-9-10,77,58,38,58,48,37,97,76,40,0.00,40.00,4,2,9,0.00
2014-9-11,68,59,53,66,58,50,98,94,78,0.00,40.00,5,1,11,0.28
2014-9-12,58,51,43,51,42,39,89,71,57,0.00,40.00,4,2,14,0.03
2014-9-13,54,45,33,49,42,32,98,91,70,0.00,40.00,2,1,4,0.10
2014-9-14,52,46,43,48,40,37,98,80,62,0.00,40.00,3,2,10,0.04
2014-9-15,63,46,33,44,39,32,97,80,43,0.00,40.00,4,1,9,0.00
2014-9-16,59,50,44,55,48,43,98,91,72,0.00,40.00,4,1,10,0.13
2014-9-17,67,53,43,51,46,42,99,81,41,0.00,40.00,4,1,10,0.01
2014-9-18,59,47,34,50,42,32,97,84,52,0.00,40.00,3,1,10,0.01
2014-9-19,60,40,28,38,29,22,96,72,25,0.00,40.00,5,1,10,0.00
2014-9-20,63,46,29,58,42,27,96,88,67,0.00,40.00,4,1,10,0.00
2014-9-21,79,63,49,62,56,48,97,78,47,0.00,40.00,5,2,14,0.00
2014-9-22,60,54,45,59,46,34,98,79,61,0.00,40.00,8,3,20,0.12
2014-9-23,64,51,44,48,42,37,95,74,54,0.00,40.00,6,2,14,0.01
2014-9-24,71,52,40,51,44,39,98,82,41,0.00,40.00,4,2,10,0.00
2014-9-25,71,51,38,53,45,37,98,84,51,0.00,40.00,3,1,7,0.00
2014-9-26,78,56,45,58,50,44,99,84,48,0.00,40.00,3,1,9,0.00
2014-9-27,82,60,46,60,52,45,98,81,45,0.00,40.00,4,1,7,0.00
2014-9-28,82,61,51,63,55,50,99,82,43,0.00,40.00,4,1,9,0.00
2014-9-29,75,61,52,59,55,51,99,83,50,0.00,40.00,2,1,8,0.00
2014-9-30,73,59,49,57,53,48,96,80,49,0.00,40.00,3,1,6,0.00
2014-10-1,65,57,50,54,52,49,97,84,65,0.00,40.00,2,1,5,0.00
2014-10-2,72,56,46,53,50,44,97,82,46,0.00,40.00,3,2,7,0.00
2014-10-3,74,54,38,47,42,37,96,71,32,0.00,40.00,3,2,8,0.00
2014-10-4,63,59,56,56,54,50,98,85,63,0.00,40.00,3,1,7,0.57
2014-10-5,60,49,35,56,41,33,99,78,37,0.00,40.00,4,2,12,0.49
2014-10-6,65,44,30,40,34,29,97,73,30,0.00,40.00,5,2,12,0.01
2014-10-7,67,58,41,61,52,39,98,83,59,0.00,40.00,4,2,10,0.21
2014-10-8,63,56,49,57,48,35,99,77,44,0.00,40.00,6,3,17,0.63
2014-10-9,53,47,34,43,34,29,96,63,41,0.00,40.00,7,4,17,0.02
2014-10-10,54,47,34,38,34,32,93,65,45,0.00,40.00,6,3,14,0.03
2014-10-11,54,43,34,42,36,32,97,80,44,0.00,40.00,3,1,7,0.00
2014-10-12,58,39,29,39,32,28,97,78,36,0.00,40.00,3,1,9,0.00
2014-10-13,58,42,26,47,35,25,95,79,45,0.00,40.00,4,1,11,0.00
2014-10-14,75,61,49,59,53,46,89,76,54,0.00,40.00,5,2,14,0.00
2014-10-15,77,67,58,62,59,55,93,76,53,0.00,40.00,5,2,12,0.00
2014-10-16,71,63,59,67,62,57,98,95,83,0.00,40.00,3,1,10,1.43
2014-10-17,65,58,53,61,54,44,99,88,52,0.00,40.00,5,2,12,0.70
2014-10-18,57,50,42,56,49,41,98,97,85,0.00,40.00,3,1,11,0.32
2014-10-19,46,41,38,42,32,26,93,70,53,0.00,40.00,4,2,12,0.01
2014-10-20,51,42,34,35,28,22,85,60,40,0.00,40.00,4,2,14,0.01
2014-10-21,47,41,34,45,40,32,98,94,85,0.00,40.00,2,1,4,0.23
2014-10-22,53,47,44,45,43,40,98,88,70,0.00,40.00,4,2,14,0.32
2014-10-23,49,47,46,46,44,42,95,87,82,0.00,40.00,5,3,12,0.33
2014-10-24,47,44,41,44,42,39,97,92,85,0.00,40.00,3,2,7,0.33
2014-10-25,58,44,33,46,39,32,98,84,44,0.00,40.00,4,2,8,0.30
2014-10-26,49,45,41,46,40,37,98,86,67,0.00,40.00,4,2,12,0.52
2014-10-27,48,43,35,38,36,33,94,78,66,0.00,40.00,5,3,15,0.07
2014-10-28,50,42,37,47,40,35,97,94,85,0.00,40.00,1,0,3,0.03
2014-10-29,53,45,37,52,44,36,98,97,90,0.00,40.00,1,0,6,0.10
2014-10-30,48,40,34,42,36,33,98,85,57,0.00,40.00,5,1,13,0.01
2014-10-31,48,41,36,36,33,27,96,75,44,0.00,40.00,3,0,8,0.01
2014-11-1,41,36,31,36,32,28,90,84,66,0.00,40.00,2,1,6,0.02
2014-11-2,36,34,31,30,22,12,82,62,42,0.00,40.00,3,2,15,0.01
2014-11-3,46,33,24,20,14,9,76,49,25,0.00,40.00,5,2,15,0.00
2014-11-4,45,36,27,39,30,20,95,78,61,0.00,40.00,2,0,3,0.00
2014-11-5,57,46,38,45,36,27,95,72,32,0.00,40.00,6,2,19,0.00
2014-11-6,49,41,34,40,36,32,97,84,55,0.00,40.00,2,0,5,0.12
2014-11-7,39,35,32,38,32,24,97,87,71,0.00,40.00,3,1,12,0.45
2014-11-8,37,32,29,27,21,18,82,63,49,0.00,40.00,4,2,17,0.01
2014-11-9,46,35,25,31,28,23,93,77,54,0.00,40.00,5,1,13,0.00
2014-11-10,50,35,24,35,29,22,93,80,48,0.00,40.00,3,1,9,0.00
2014-11-11,60,38,26,39,32,25,95,80,41,0.00,40.00,4,1,12,0.00
2014-11-12,48,37,30,46,36,29,98,95,83,0.00,40.00,2,1,6,0.10
2014-11-13,38,31,25,30,26,19,97,83,46,0.00,40.00,3,1,7,0.01
2014-11-14,35,30,24,30,24,16,95,78,55,0.00,40.00,6,1,14,0.05
2014-11-15,34,25,16,19,14,10,86,64,39,0.00,40.00,5,2,12,0.02
2014-11-16,35,27,14,27,20,11,88,77,56,0.00,40.00,3,1,7,0.01
2014-11-17,34,32,29,32,30,25,98,92,83,0.00,40.00,1,0,5,0.31
2014-11-18,35,28,20,34,17,3,98,66,43,0.00,40.00,9,4,20,0.16
2014-11-19,30,22,14,17,11,4,87,64,37,0.00,40.00,6,3,16,0.02
2014-11-20,36,22,11,24,15,7,90,74,46,0.00,40.00,6,2,15,0.01
2014-11-21,24,17,8,16,8,1,87,68,45,0.00,40.00,8,2,16,0.01
2014-11-22,35,24,8,24,12,3,84,62,41,0.00,40.00,3,1,10,0.01